Location: Asis
(14.1331°N, 120.9056°E)
Time: 03:17:26
(UTC+00:00)

GRACE-FO 2 - Pass Details

Date: 15 January 2026
Orbit: 447 x 461 km, 89.0° (Epoch: 17 February)

Event Time Altitude Azimuth Distance (km) Brightness Sun altitude
Rises 10:36:33 0° 7° (N) 2,482 7.9 -12.1°
Reaches altitude 10° 10:38:38 10° 12° (NNE) 1,607 6.9 -12.5°
Maximum altitude 10:42:04 59° 92° (E) 537 4.4 -13.3°
Drops below altitude 10° 10:45:30 10° 172° (S) 1,603 7.3 -14.1°
Sets 10:47:34 0° 176° (S) 2,475 8.4 -14.6°
